Regional Weather Roundup
Issued by NWS

Home | Current Version | Previous Version | Text Only | Print | Product List | Glossary Off
Versions: 1 2 3 4 5 6 7 8 9 10 11 12 13 14 15 16 17 18 19 20 21 22 23 24 25 26 27

000
ASUS45 KCYS 290510
RWRWY

WYOMING REGIONAL WEATHER ROUNDUP
NATIONAL WEATHER SERVICE CHEYENNE WY
1100 PM MDT THU JUL 28 2016

NOTE:  "FAIR" INDICATES FEW OR NO CLOUDS BELOW 12,000 FEET
WITH NO SIGNIFICANT WEATHER AND/OR OBSTRUCTIONS TO VISIBILITY.

WYZ001-290600-
YELLOWSTONE NATIONAL PARK

CITY           SKY/WX    TMP DP  RH WIND       PRES   REMARKS
LK YELLOWSTONE   N/A     51  38  60 CALM      30.37S
W YELLOWSTONE  NOT AVBL

$$
WYZ002>013-054>058-071-098>099-290600-
NORTHERN WYOMING

CITY           SKY/WX    TMP DP  RH WIND       PRES   REMARKS
JACKSON        FAIR      55  39  54 N8        30.24R
CODY           FAIR      66  48  52 CALM      30.23S
GREYBULL       MOCLDY    76  47  35 N14       30.12R
WORLAND        FAIR      70  47  43 VRB5      30.14R
SHERIDAN       FAIR      61  52  72 S7        30.18S
BUFFALO        FAIR      62  52  69 W3        30.25S
GILLETTE       FAIR      58  56  93 CALM      30.19S
HULETT         FAIR      61  55  82 SE8       30.20F
NEWCASTLE      FAIR      63  52  67 SE9       30.20R

$$
WYZ014>020-022>026-101>103-290600-
CENTRAL WYOMING

CITY           SKY/WX    TMP DP  RH WIND       PRES   REMARKS
BIG PINEY      CLOUDY    59  27  29 N12       30.29S
PINEDALE       FAIR      59  30  33 NW5       30.31S
DUBOIS         FAIR      59  43  55 CALM      30.34R
LANDER         FAIR      68  43  40 W7        30.23S
RIVERTON       FAIR      71  49  45 E10       30.24R
CASPER         FAIR      66  50  56 E8        30.24S
DOUGLAS          N/A    N/A N/A N/A MISG      30.24R

$$
WYZ021-027>030-104>119-290600-
SOUTHERN WYOMING

CITY           SKY/WX    TMP DP  RH WIND       PRES   REMARKS
EVANSTON       FAIR      73  26  17 NE7       30.30R
KEMMERER         N/A    N/A N/A N/A N8        30.31S
FORT BRIDGER   FAIR      71  21  15 W3        30.31S
ROCK SPRINGS   FAIR      69  41  36 NE17G26   30.27R
DIXON          FAIR      70  36  29 SE6       30.21R
RAWLINS        FAIR      65  48  54 NE14      30.28S
SARATOGA       FAIR      59  45  58 S8G17     30.27F
LARAMIE        FAIR      58  53  84 SE9       30.33S
CHEYENNE       FAIR      61  55  81 N3        30.30R
TORRINGTON     FAIR      65  58  78 NE8       30.18R
PINE BLUFFS    FAIR      61  52  72 CALM      30.26S

$$




USA.gov is the U.S. government's official web portal to all federal, state and local government web resources and services.